STARLINK-1255, 45399

Orbit data source: Space-Track

STARLINK-1255, 45399 is a payload satellite owned by SpaceX/Seattle (US) in LEO that was launched on Wed, 18 Mar 2020 UTC via an FALCON 9 launch vehicle from the Air Force Eastern Test Range (AFETR). Payload-class satellites include a variety of spacecraft equipped with specific instruments for various scientific and technological missions. These include communications satellites like Starlink; space stations such as the ISS; scientific satellites like the Hubble; Earth observation satellites from companies like Planet Labs, Umbra, and HawkEye 360; GPS; miniature CubeSats for education and research; and military/defense satellites.

Loading next visibility...
Identifier
45399, 2020-019AR
Orbit
LEO
Country
Flag of USUS
Related business
Manufacturer
SpaceX/Seattle
Mission
Partially operational Commercial Communications
Bus & Motor
STARLINK, Unknown motor
Mass
260 kg wet, ~248 kg dry
Launch date (UTC)
2020-03-18 (6 years ago)
Launch vehicle
FALCON 9
Launch site
Air Force Eastern Test Range (AFETR)
Object type
Payload
Rocket body
Debris
Shape & HBR
Box + 1 Pan, 10.1 m
Radar Cross Section
13.562 m², Large (>1 m²)

Expand to show TLE details & history
Last TLE update: 13 hours ago

TLE from 13 hours ago
0 STARLINK-1255
1 45399U 20019AR  26038.00002315  .00164329  00000-0  32402-2 0  9990
2 45399  53.0449 249.7893 0007200 133.8706   2.1107 15.46100443  5897
Epoch: 2026-02-07T00:00Z
TLE epoch observation values (Epoch: 2026-02-07T00:00:02.000Z)
Latitude
33.83861°
Longitude
-97.45246°
Altitude
425.598 km
Speed
7.663 km/s
True Right ascension
02h 38m 44s
True Declination
33° 40' 19"
Sunlit
Object was in daylight at epoch
Visualization orbit readout
Latitude
Unknown
Longitude
Unknown
Altitude
Unknown
Speed
Unknown
Apparent Right ascension
Unknown
Apparent Declination
Unknown
Sunlit
N/A
Visualization observer readout
Local Sidereal Time
15:09:09
Azimuth
Unknown
Elevation
Unknown
Doppler factor
Unknown
Orbital elements
Apogee altitude
433.324 km
Perigee altitude
423.523 km
Semi-major axis
6,806.56 km
Eccentricity
0.00072
Inclination
53.0449°
RAAN
249.7893°
Arg. of periapsis
133.8706°
True anomaly
2.11374°
Mean anomaly
2.1107°
Eccentric anomaly
2.11222°
Mean motion
3.86502 °/min
Orbital period
93.14 mins
BSTAR
0.0032402
Loading maneuver chart data...
Computing Atmospheric mass density...
Loading historical data...
Loading historical data...
Loading historical data...
Loading historical data...
Loading historical data...
Loading historical data...
Loading historical data...

Documentation

Showing up to 5 results
|